FW2003 Weather Reports


time (UTC)temp
C
wind
direction
speed
KPH
gust
KPH
rain 1hr
cm
rain 24hr
cm
rain mn
cm
humidity
%
barometer
mb
20260506103334 11 107 0.0 0.0 0.00 0.00 0.00 78 1018.8
20260506102829 11 107 0.0 0.0 0.00 0.00 0.00 77 1018.8
20260506102341 10 107 0.0 0.0 0.00 0.00 0.00 78 1018.8
20260506101852 10 107 0.0 0.0 0.00 0.00 0.00 78 1018.8
20260506101323 10 107 0.0 0.0 0.00 0.00 0.00 78 1018.8
20260506100836 11 107 0.0 0.0 0.00 0.00 0.00 77 1018.7
20260506100348 11 107 0.0 0.0 0.00 0.00 0.00 76 1018.7
20260506095817 11 107 0.0 0.0 0.00 0.00 0.00 75 1018.8
20260506095349 11 107 0.0 0.0 0.00 0.00 0.00 75 1018.8
20260506094820 11 107 0.0 0.0 0.00 0.00 0.00 77 1018.8
20260506094331 11 106 0.0 0.0 0.00 0.00 0.00 75 1018.8
20260506093825 11 107 0.0 0.0 0.00 0.00 0.00 75 1018.7
20260506093316 11 107 0.0 0.0 0.00 0.00 0.00 74 1018.7
20260506092813 11 107 0.0 0.0 0.00 0.00 0.00 73 1018.6
20260506092325 11 107 0.0 0.0 0.00 0.00 0.00 74 1018.6
20260506091817 11 107 0.0 0.0 0.00 0.00 0.00 75 1018.6
20260506091328 11 107 0.0 0.0 0.00 0.00 0.00 75 1018.6
20260506090820 11 107 0.0 0.0 0.00 0.00 0.00 76 1018.6
20260506090333 11 107 0.0 0.0 0.00 0.00 0.00 74 1018.6
20260506085825 11 107 0.0 0.0 0.00 0.00 0.00 73 1018.5
20260506085338 11 107 0.0 0.0 0.00 0.00 0.00 72 1018.5
20260506084828 11 107 0.0 0.0 0.00 0.00 0.00 72 1018.5
20260506084323 12 107 0.0 0.0 0.00 0.00 0.00 71 1018.5
20260506083815 12 107 0.0 0.0 0.00 0.00 0.00 70 1018.4
20260506083327 12 107 0.0 0.0 0.00 0.00 0.00 71 1018.4
20260506082819 12 107 0.0 0.0 0.00 0.00 0.00 70 1018.4
20260506082330 12 107 0.0 0.0 0.00 0.00 0.00 70 1018.4
20260506081823 12 107 0.0 0.0 0.00 0.00 0.00 70 1018.4
20260506081315 12 107 0.0 0.0 0.00 0.00 0.00 70 1018.4
20260506080848 12 107 0.0 0.0 0.00 0.00 0.00 69 1018.4
20260506080318 13 107 0.0 0.0 0.00 0.00 0.00 68 1018.3
20260506073314 14 108 0.0 0.0 0.00 0.00 0.00 61 1018.0
20260506072826 15 108 0.0 3.2 0.00 0.00 0.00 61 1018.0
20260506072317 15 108 0.0 3.2 0.00 0.00 0.00 60 1017.9
20260506071813 14 111 0.0 0.0 0.00 0.00 0.00 62 1017.8
20260506071324 14 112 0.0 0.0 0.00 0.00 0.00 61 1017.7
20260506070816 14 112 0.0 1.6 0.00 0.00 0.00 61 1017.7
20260506070348 15 112 0.0 1.6 0.00 0.00 0.00 60 1017.5
20260506062329 15 107 0.0 3.2 0.00 0.00 0.00 55 1017.4
20260506061841 16 300 0.0 3.2 0.00 0.00 0.00 54 1017.3
20260506061352 16 46 0.0 1.6 0.00 0.00 0.00 55 1017.2
20260506060823 15 293 0.0 1.6 0.00 0.00 0.00 55 1017.2
20260506060335 15 360 0.0 1.6 0.00 0.00 0.00 55 1017.1
20260506051317 15 259 0.0 0.0 0.00 0.00 0.00 57 1016.7
20260506050850 15 259 0.0 0.0 0.00 0.00 0.00 57 1016.6
20260506050320 16 259 0.0 0.0 0.00 0.00 0.00 55 1016.5
20260506044815 17 259 0.0 0.0 0.00 0.00 0.00 53 1016.3
20260506044348 17 259 0.0 0.0 0.00 0.00 0.00 54 1016.3
20260506043819 17 259 0.0 1.6 0.00 0.00 0.00 50 1016.2
20260506043315 17 259 0.0 1.6 0.00 0.00 0.00 50 1016.2
20260506042828 18 105 0.0 1.6 0.00 0.00 0.00 49 1016.1
20260506042320 18 102 0.0 1.6 0.00 0.00 0.00 49 1016.0
20260506041830 18 103 0.0 0.0 0.00 0.00 0.00 48 1016.0
20260506041322 18 103 0.0 3.2 0.00 0.00 0.00 47 1015.9
20260506040814 19 103 0.0 4.8 0.00 0.00 0.00 45 1015.8
20260506040325 19 117 1.6 8.0 0.00 0.00 0.00 45 1015.7
20260506035815 20 226 1.6 8.0 0.00 0.00 0.00 44 1015.6
20260506035326 19 254 3.2 8.0 0.00 0.00 0.00 44 1015.4
20260506034818 19 278 0.0 11.3 0.00 0.00 0.00 44 1015.4
20260506034313 20 308 1.6 8.0 0.00 0.00 0.00 43 1015.3
20260506033824 20 239 1.6 8.0 0.00 0.00 0.00 43 1015.2
20260506033334 20 20 3.2 6.4 0.00 0.00 0.00 41 1015.1
20260506032825 20 11 0.0 4.8 0.00 0.00 0.00 41 1015.0
20260506032317 21 356 1.6 8.0 0.00 0.00 0.00 40 1015.0
20260506031830 21 342 3.2 8.0 0.00 0.00 0.00 39 1015.0
20260506031321 21 282 0.0 6.4 0.00 0.00 0.00 39 1014.9
20260506030813 22 332 0.0 3.2 0.00 0.00 0.00 38 1014.9
20260506030345 22 57 0.0 1.6 0.00 0.00 0.00 38 1014.8
20260506025816 23 241 0.0 3.2 0.00 0.00 0.00 37 1014.8
20260506025332 23 254 0.0 8.0 0.00 0.00 0.00 36 1014.7
20260506024823 23 323 0.0 8.0 0.00 0.00 0.00 35 1014.6
20260506024315 23 318 0.0 4.8 0.00 0.00 0.00 35 1014.6
20260506023827 23 25 0.0 4.8 0.00 0.00 0.00 35 1014.5
20260506023339 23 345 1.6 16.1 0.00 0.00 0.00 34 1014.5
20260506022829 23 290 1.6 16.1 0.00 0.00 0.00 34 1014.4
20260506022321 24 304 0.0 6.4 0.00 0.00 0.00 35 1014.3
20260506021814 24 232 3.2 12.9 0.00 0.00 0.00 35 1014.3
20260506021327 24 214 1.6 12.9 0.00 0.00 0.00 36 1014.3
20260506020823 24 310 3.2 9.7 0.00 0.00 0.00 36 1014.2
20260506020314 25 34 4.8 11.3 0.00 0.00 0.00 37 1014.2
20260506015825 25 293 3.2 11.3 0.00 0.00 0.00 40 1014.1
20260506015316 25 258 3.2 9.7 0.00 0.00 0.00 41 1014.1
20260506014828 25 281 3.2 9.7 0.00 0.00 0.00 41 1014.1
20260506014319 25 268 3.2 8.0 0.00 0.00 0.00 41 1014.1
20260506013832 25 311 1.6 6.4 0.00 0.00 0.00 41 1014.1
20260506013325 25 245 3.2 9.7 0.00 0.00 0.00 40 1014.1
20260506012816 25 241 3.2 8.0 0.00 0.00 0.00 40 1014.0
20260506012313 25 304 0.0 9.7 0.00 0.00 0.00 39 1014.0
20260506011824 25 251 0.0 9.7 0.00 0.00 0.00 42 1014.0
20260506011337 25 291 0.0 9.7 0.00 0.00 0.00 41 1014.0
20260506010827 25 331 6.4 9.7 0.00 0.00 0.00 40 1014.0
20260506010319 25 233 0.0 9.7 0.00 0.00 0.00 43 1014.0
20260506005831 25 252 4.8 9.7 0.00 0.00 0.00 41 1014.0
20260506005324 25 250 3.2 8.0 0.00 0.00 0.00 41 1014.0
20260506004816 25 272 1.6 9.7 0.00 0.00 0.00 41 1014.0
20260506004328 25 237 0.0 11.3 0.00 0.00 0.00 41 1014.0
20260506003823 25 291 0.0 9.7 0.00 0.00 0.00 41 1013.8
20260506003335 25 252 3.2 9.7 0.00 0.00 0.00 41 1014.0
20260506002826 25 279 3.2 6.4 0.00 0.00 0.00 42 1013.9
20260506002318 25 284 1.6 8.0 0.00 0.00 0.00 42 1013.9
20260506001830 25 253 3.2 9.7 0.00 0.00 0.00 41 1014.0
20260506001320 26 340 1.6 4.8 0.00 0.00 0.00 41 1013.9
20260506000853 25 263 0.0 4.8 0.00 0.00 0.00 42 1013.9
20260506000325 25 323 0.0 12.9 0.00 0.00 0.00 43 1013.9
20260505235816 25 233 4.8 12.9 0.00 0.00 0.00 43 1014.0
20260505235332 25 320 1.6 9.7 0.00 0.00 0.00 42 1014.0
20260505234845 25 266 3.2 9.7 0.00 0.00 0.00 43 1014.0
20260505234316 24 275 0.0 9.7 0.00 0.00 0.00 43 1014.0
20260505233828 24 277 4.8 12.9 0.00 0.00 0.00 43 1014.1
20260505233319 25 243 1.6 6.4 0.00 0.00 0.00 43 1014.0
20260505232832 24 285 3.2 8.0 0.00 0.00 0.00 43 1014.1
20260505232324 24 276 1.6 12.9 0.00 0.00 0.00 43 1014.2
20260505231835 24 277 6.4 12.9 0.00 0.00 0.00 41 1014.2
20260505231326 24 248 1.6 11.3 0.00 0.00 0.00 43 1014.1
20260505230823 24 276 3.2 9.7 0.00 0.00 0.00 43 1014.2
20260505230316 24 242 3.2 9.7 0.00 0.00 0.00 43 1014.3
20260505225828 24 297 1.6 9.7 0.00 0.00 0.00 43 1014.3
20260505225320 23 249 3.2 11.3 0.00 0.00 0.00 44 1014.3
20260505224832 23 271 0.0 12.9 0.00 0.00 0.00 44 1014.4
20260505224343 23 246 4.8 12.9 0.00 0.00 0.00 43 1014.4
20260505223815 23 287 4.8 11.3 0.00 0.00 0.00 42 1014.4
20260505223327 23 253 1.6 9.7 0.00 0.00 0.00 41 1014.5
20260505222839 23 257 4.8 9.7 0.00 0.00 0.00 40 1014.5
20260505222314 23 244 3.2 9.7 0.00 0.00 0.00 42 1014.6
20260505221826 23 290 4.8 9.7 0.00 0.00 0.00 41 1014.5
20260505221318 23 257 3.2 8.0 0.00 0.00 0.00 42 1014.6
20260505220831 23 96 1.6 9.7 0.00 0.00 0.00 42 1014.7
20260505220323 23 263 3.2 9.7 0.00 0.00 0.00 43 1014.7
20260505215815 23 63 1.6 8.0 0.00 0.00 0.00 44 1014.8
20260505215328 23 262 1.6 8.0 0.00 0.00 0.00 42 1014.9
20260505214839 23 283 4.8 8.0 0.00 0.00 0.00 43 1014.9
20260505214330 23 224 0.0 8.0 0.00 0.00 0.00 45 1014.9
20260505213822 22 248 3.2 8.0 0.00 0.00 0.00 42 1015.0
20260505213315 22 264 4.8 11.3 0.00 0.00 0.00 42 1015.0
20260505212825 22 247 4.8 11.3 0.00 0.00 0.00 45 1015.0
20260505212317 22 243 3.2 11.3 0.00 0.00 0.00 48 1015.0
20260505211829 22 236 3.2 11.3 0.00 0.00 0.00 48 1015.0
20260505211341 22 259 1.6 8.0 0.00 0.00 0.00 48 1015.0
20260505210851 22 274 4.8 8.0 0.00 0.00 0.00 46 1015.1
20260505210322 21 63 0.0 9.7 0.00 0.00 0.00 49 1015.3
20260505205815 22 287 3.2 11.3 0.00 0.00 0.00 48 1015.3
20260505205327 21 131 0.0 11.3 0.00 0.00 0.00 50 1015.3
20260505204822 21 27 0.0 9.7 0.00 0.00 0.00 48 1015.4
20260505204314 20 229 4.8 11.3 0.00 0.00 0.00 49 1015.5
20260505203827 20 258 1.6 9.7 0.00 0.00 0.00 48 1015.4
20260505203319 20 266 1.6 11.3 0.00 0.00 0.00 48 1015.5
20260505202832 20 316 0.0 11.3 0.00 0.00 0.00 52 1015.6
20260505202322 20 265 6.4 8.0 0.00 0.00 0.00 50 1015.7
20260505201834 20 87 0.0 8.0 0.00 0.00 0.00 49 1015.6
20260505201324 20 345 0.0 8.0 0.00 0.00 0.00 51 1015.8
20260505200815 21 284 1.6 8.0 0.00 0.00 0.00 51 1015.8
20260505200328 21 264 1.6 8.0 0.00 0.00 0.00 52 1015.8
20260505195823 20 89 0.0 8.0 0.00 0.00 0.00 54 1015.9
20260505195314 20 272 4.8 11.3 0.00 0.00 0.00 53 1015.8
20260505194825 20 275 3.2 9.7 0.00 0.00 0.00 53 1015.8
20260505194315 19 106 0.0 11.3 0.00 0.00 0.00 54 1015.9
20260505193827 18 223 1.6 12.9 0.00 0.00 0.00 54 1015.9
20260505193319 20 266 4.8 11.3 0.00 0.00 0.00 53 1015.8
20260505192831 20 253 0.0 8.0 0.00 0.00 0.00 55 1015.9
20260505192344 19 120 0.0 8.0 0.00 0.00 0.00 55 1015.9
20260505191834 19 232 0.0 11.3 0.00 0.00 0.00 55 1015.9
20260505191326 18 173 3.2 11.3 0.00 0.00 0.00 55 1016.0
20260505190823 18 112 1.6 6.4 0.00 0.00 0.00 60 1016.0
20260505190315 18 275 3.2 8.0 0.00 0.00 0.00 60 1016.0
20260505185828 18 240 1.6 8.0 0.00 0.00 0.00 59 1016.1
20260505185317 18 247 3.2 6.4 0.00 0.00 0.00 59 1016.0
20260505184828 18 265 1.6 6.4 0.00 0.00 0.00 60 1016.1
20260505184320 18 265 0.0 8.0 0.00 0.00 0.00 61 1016.1
20260505183831 17 259 1.6 8.0 0.00 0.00 0.00 61 1016.1
20260505183324 18 293 1.6 4.8 0.00 0.00 0.00 60 1016.1
20260505182818 17 158 0.0 8.0 0.00 0.00 0.00 64 1016.2
20260505182329 17 295 0.0 9.7 0.00 0.00 0.00 64 1016.2
20260505181821 17 250 3.2 9.7 0.00 0.00 0.00 64 1016.2
20260505181313 16 255 1.6 9.7 0.00 0.00 0.00 65 1016.2
20260505180825 16 143 3.2 9.7 0.00 0.00 0.00 65 1016.2
20260505180318 16 262 0.0 9.7 0.00 0.00 0.00 66 1016.2
20260505175829 16 267 3.2 9.7 0.00 0.00 0.00 64 1016.2
20260505175321 17 203 0.0 6.4 0.00 0.00 0.00 66 1016.3
20260505174816 17 242 3.2 6.4 0.00 0.00 0.00 64 1016.3
20260505174328 17 156 0.0 4.8 0.00 0.00 0.00 63 1016.2
20260505173818 17 131 1.6 4.8 0.00 0.00 0.00 64 1016.3
20260505173330 16 141 0.0 6.4 0.00 0.00 0.00 67 1016.2
20260505172821 16 279 1.6 6.4 0.00 0.00 0.00 66 1016.3
20260505172314 16 258 0.0 3.2 0.00 0.00 0.00 68 1016.3
20260505171826 15 120 0.0 4.8 0.00 0.00 0.00 68 1016.4
20260505171339 15 245 3.2 4.8 0.00 0.00 0.00 68 1016.4
20260505170830 15 245 1.6 4.8 0.00 0.00 0.00 69 1016.3
20260505170320 15 271 1.6 6.4 0.00 0.00 0.00 72 1016.5
20260505165832 14 255 0.0 6.4 0.00 0.00 0.00 74 1016.6
20260505165327 14 252 3.2 6.4 0.00 0.00 0.00 73 1016.6
20260505164819 14 274 0.0 6.4 0.00 0.00 0.00 72 1016.6
20260505164332 15 354 0.0 3.2 0.00 0.00 0.00 73 1016.6
20260505163824 13 89 0.0 4.8 0.00 0.00 0.00 75 1016.6
20260505163315 13 300 3.2 4.8 0.00 0.00 0.00 77 1016.6
20260505162827 13 270 0.0 6.4 0.00 0.00 0.00 78 1016.6
20260505162319 13 260 1.6 6.4 0.00 0.00 0.00 77 1016.6
20260505161832 13 274 1.6 4.8 0.00 0.00 0.00 78 1016.6
20260505161327 13 268 1.6 4.8 0.00 0.00 0.00 78 1016.6
20260505160817 13 255 0.0 3.2 0.00 0.00 0.00 79 1016.6
20260505160330 12 269 0.0 4.8 0.00 0.00 0.00 78 1016.6
20260505153320 13 102 0.0 1.6 0.00 0.00 0.00 79 1016.6
20260505152831 13 102 0.0 0.0 0.00 0.00 0.00 79 1016.6
20260505152343 13 102 0.0 0.0 0.00 0.00 0.00 80 1016.5
20260505151818 12 102 0.0 0.0 0.00 0.00 0.00 80 1016.5
20260505151350 12 102 0.0 1.6 0.00 0.00 0.00 81 1016.5
20260505150821 12 102 0.0 3.2 0.00 0.00 0.00 82 1016.4
20260505150314 12 137 0.0 1.6 0.00 0.00 0.00 82 1016.4
20260505140317 12 248 0.0 1.6 0.00 0.00 0.00 83 1016.0
20260505124822 12 236 0.0 3.2 0.00 0.00 0.00 82 1015.4
20260505124313 12 231 1.6 4.8 0.00 0.00 0.00 82 1015.3
20260505123825 12 285 0.0 4.8 0.00 0.00 0.00 82 1015.4
20260505123317 12 246 0.0 4.8 0.00 0.00 0.00 82 1015.4
20260505122829 12 270 3.2 4.8 0.00 0.00 0.00 82 1015.3
20260505122321 12 273 0.0 4.8 0.00 0.00 0.00 82 1015.3
20260505121813 12 258 3.2 4.8 0.00 0.00 0.00 82 1015.3
20260505121346 12 254 0.0 3.2 0.00 0.00 0.00 82 1015.2
20260505120821 12 285 1.6 4.8 0.00 0.00 0.00 82 1015.2
20260505120313 12 265 1.6 4.8 0.00 0.00 0.00 82 1015.1
20260505115825 12 238 0.0 4.8 0.00 0.00 0.00 82 1015.1
20260505115317 12 308 1.6 6.4 0.00 0.00 0.00 82 1015.0
20260505114829 12 271 1.6 6.4 0.00 0.00 0.00 82 1015.0
20260505114321 12 270 0.0 4.8 0.00 0.00 0.00 82 1015.0
20260505113813 12 264 1.6 4.8 0.00 0.00 0.00 82 1015.0
20260505113326 12 229 0.0 1.6 0.00 0.00 0.00 82 1014.9
20260505112822 12 252 0.0 6.4 0.00 0.00 0.00 83 1014.9
20260505112353 12 271 0.0 6.4 0.00 0.00 0.00 82 1014.9
20260505111823 12 347 0.0 3.2 0.00 0.00 0.00 83 1014.9
20260505111316 12 249 1.6 6.4 0.00 0.00 0.00 83 1014.8
20260505110828 12 269 0.0 4.8 0.00 0.00 0.00 83 1014.8
20260505110340 12 245 1.6 4.8 0.00 0.00 0.00 83 1014.8